Location: Unspecified
(0.0000°N, 0.0000°E)
Time: 14:27:15
(UTC+00:00)

Courier 1B - Pass Details

Date: 15 February 2026
Orbit: 962 x 1208 km, 28.3° (Epoch: 16 March)

Event Time Altitude Azimuth Distance (km) Brightness Sun altitude
Exits shadow 04:20:13 51° 335° (NNW) 1,380 8.0 -27.7°
Maximum altitude 04:21:57 65° 30° (NNE) 1,204 7.9 -27.3°
Drops below altitude 10° 04:28:58 10° 111° (ESE) 2,879 11.0 -25.6°
Sets 04:31:38 0° 114° (ESE) 3,798 11.9 -25.0°
